Key West, FL

4:27 AM EDT on May 23, 2018 (GMT -0400)
Key West International

Weather History for KEYW - August, 2013

Change the Weather History Date:

Saturday, August 24, 2013

  Actual Average Record
Temperature  
Mean Temperature 85 °F 84 °F  
Max Temperature 88 °F 89 °F 94 °F (1956)
Min Temperature 81 °F 79 °F 70 °F (1889)
Degree Days  
Heating Degree Days 0 0  
Month to date heating degree days 0 0  
Since 1 June heating degree days 0 0  
Since 1 July heating degree days 0 0  
Cooling Degree Days 20 19  
Month to date cooling degree days 454 473  
Year to date cooling degree days 3197 3058  
Since 1 June cooling degree days 1568 1628  
Growing Degree Days 34 (Base 50)    
Moisture  
Dew Point 76 °F    
Average Humidity 74    
Maximum Humidity 80    
Minimum Humidity 68    
Precipitation  
Precipitation 0.02 in 0.20 in 2.55 in (2016)
Month to date precipitation 4.21 3.98  
Year to date precipitation 35.34 22.27  
Snow  
Snow 0.00 in - - ()
Month to date snowfall 0.0  
Since 1 June snowfall 0.0  
Since 1 July snowfall 0.0  
Snow Depth 0.00 in    
Sea Level Pressure  
Sea Level Pressure 30.03 in    
Wind  
Wind Speed 9 mph (ESE)    
Max Wind Speed 16 mph    
Max Gust Speed 21 mph    
Visibility 10 miles    
Events      
T = Trace of Precipitation, MM = Missing Value Source: NWS Daily Summary

Daily Weather History Graph

Daily Weather History Graph

Search for Another Location

Airport or City:

Astronomy

Aug. 24, 2013 Rise Set
Actual Time 7:05 AM EDT 7:52 PM EDT
Civil Twilight 6:41 AM EDT 8:16 PM EDT
Nautical Twilight 6:14 AM EDT 8:43 PM EDT
Astronomical Twilight 5:46 AM EDT 9:11 PM EDT
Moon 10:20 PM EDT (8/24) 10:31 AM EDT (8/24)
Length of Visible Light 13h 34m
Length of Day
12h 47m
Waning Gibbous, 84% of the Moon is Illuminated
Aug 24
Waning Gibbous
Aug 28
Last Quarter
Sep 5
New
Sep 12
First Quarter
Sep 19
Full

Hourly Weather History & Observations

Time (EDT) Temp. Heat Index Dew Point Humidity Pressure Visibility Wind Dir Wind Speed Gust Speed Precip Events Conditions
12:53 AM 82.9 °F 90.8 °F 75.9 °F 79% 30.01 in 10.0 mi SE 12.7 mph - 0.06 in   Clear
1:53 AM 82.9 °F 90.8 °F 75.9 °F 79% 30.00 in 10.0 mi SE 11.5 mph - N/A   Partly Cloudy
2:53 AM 82.9 °F 90.2 °F 75.0 °F 77% 29.99 in 10.0 mi ESE 12.7 mph - N/A   Partly Cloudy
3:53 AM 82.0 °F 88.6 °F 75.0 °F 79% 29.98 in 10.0 mi SE 8.1 mph - 0.02 in   Partly Cloudy
4:53 AM 82.0 °F 88.6 °F 75.0 °F 79% 29.97 in 10.0 mi ESE 10.4 mph - N/A   Clear
5:53 AM 82.0 °F 88.6 °F 75.0 °F 79% 29.99 in 10.0 mi ESE 6.9 mph - N/A   Clear
6:53 AM 82.9 °F 89.4 °F 73.9 °F 74% 30.00 in 10.0 mi SE 10.4 mph - N/A   Clear
7:53 AM 82.9 °F 90.2 °F 75.0 °F 77% 30.02 in 10.0 mi SE 8.1 mph - N/A   Partly Cloudy
8:53 AM 84.0 °F 92.6 °F 75.9 °F 76% 30.03 in 10.0 mi ESE 6.9 mph - N/A   Partly Cloudy
9:53 AM 84.9 °F 95.3 °F 77.0 °F 77% 30.04 in 10.0 mi ESE 9.2 mph - N/A   Clear
10:53 AM 84.9 °F 94.1 °F 75.9 °F 74% 30.05 in 10.0 mi North - - N/A   Clear
11:53 AM 87.1 °F 98.8 °F 77.0 °F 72% 30.06 in 10.0 mi ESE 11.5 mph - N/A   Clear
12:53 PM 87.1 °F 97.3 °F 75.9 °F 69% 30.07 in 10.0 mi ESE 10.4 mph 20.7 mph N/A   Clear
1:53 PM 87.1 °F 97.3 °F 75.9 °F 69% 30.06 in 10.0 mi SE 9.2 mph - N/A   Clear
2:53 PM 86.0 °F 96.9 °F 77.0 °F 74% 30.06 in 10.0 mi SE 9.2 mph - N/A   Partly Cloudy
3:53 PM 87.1 °F 98.8 °F 77.0 °F 72% 30.04 in 10.0 mi ESE 8.1 mph - N/A   Partly Cloudy
4:53 PM 86.0 °F 96.0 °F 75.9 °F 72% 30.01 in 10.0 mi ESE 9.2 mph - N/A   Clear
5:53 PM 86.0 °F 96.0 °F 75.9 °F 72% 30.02 in 10.0 mi ESE 9.2 mph - N/A   Clear
6:53 PM 84.9 °F 94.1 °F 75.9 °F 74% 30.03 in 10.0 mi SE 9.2 mph - N/A   Partly Cloudy
7:53 PM 84.0 °F 92.6 °F 75.9 °F 76% 30.05 in 10.0 mi ESE 8.1 mph - N/A   Clear
8:53 PM 84.0 °F 92.6 °F 75.9 °F 76% 30.05 in 10.0 mi ESE 9.2 mph - N/A   Partly Cloudy
9:53 PM 82.9 °F 90.2 °F 75.0 °F 77% 30.06 in 10.0 mi East 8.1 mph - N/A   Clear
10:53 PM 82.9 °F 90.2 °F 75.0 °F 77% 30.08 in 10.0 mi East 8.1 mph - N/A   Clear
11:53 PM 82.9 °F 90.8 °F 75.9 °F 79% 30.09 in 10.0 mi East 10.4 mph - N/A   Scattered Clouds